#timestamp,LO_Frequency,Hit,StdDev 
1551848415.6,286046996.6,N
1551848435.4,286047000.3,N
1551848455.3,286046999.7,N
1551848475.1,286047001.8,N
1551848495.8,286047004.4,N
1551848515.7,286047000.9,N
1551848535.5,286047000.7,N
1551848555.4,286047002.4,N
1551848575.2,286046998.7,N
1551848595.0,286046999.6,N
1551848595.9,286046999.6,N
1551848615.8,286046998.0,N
1551848635.6,286046995.0,N
1551848655.5,286046998.0,N
1551848675.3,286046996.6,N
1551848695.1,286047002.4,N
1551848715.9,286047000.1,N
1551848735.7,286046999.9,N
1551848755.5,286047000.1,N
1551848775.4,286047002.0,N
1551848795.2,286046999.7,N
1551848815.1,286046998.4,N
1551848816.0,286046998.4,N
1551848835.8,286047000.4,N
1551848855.6,286047002.4,N
1551848875.5,286047002.7,N
1551848895.3,286047001.5,N
1551848915.1,286047002.0,N
1551848935.2,286047000.6,N
1551848955.1,286046999.4,N
1551848956.0,286046999.4,N
1551848975.8,286046996.5,N
1551848995.6,286046998.9,N
1551849015.5,286046998.3,N
1551849035.3,286046999.4,N
1551849055.1,286046997.5,N
1551849075.9,286046997.9,N
1551849095.7,286046997.9,N
1551849115.6,286046997.2,N
1551849135.4,286046997.0,N
1551849155.2,286046997.0,N
1551849175.1,286046997.3,N
1551849176.0,286046997.3,N
1551849195.8,286046996.9,N
1551849215.7,286046999.2,N
1551849235.5,286046999.9,N
1551849255.3,286047002.1,N
1551849275.2,286047003.9,N
1551849295.9,286047002.6,N
1551849315.7,286047001.0,N
1551849335.6,286047001.0,N
1551849355.4,286047002.3,N
1551849375.2,286046999.1,N
1551849395.1,286046996.5,N
1551849396.0,286046996.5,N
1551849415.8,286046995.3,N
1551849435.7,286046999.6,N
1551849455.5,286046998.6,N
1551849475.3,286046996.5,N
1551849495.2,286046995.3,N
1551849515.0,286046994.9,N
1551849515.9,286046994.9,N
1551849535.8,286046994.9,N
1551849555.6,286046999.0,N
1551849575.4,286047001.8,N
1551849595.3,286047003.8,N
1551849615.1,286047002.3,N
1551849635.9,286047001.3,N
1551849655.7,286047001.8,N
1551849675.5,286047000.5,N
1551849695.4,286047000.7,N
1551849715.2,286047001.2,N
1551849735.0,286047000.8,N
1551849735.9,286047000.8,N
1551849755.8,286047002.1,N
1551849775.6,286047001.3,N
1551849795.5,286047002.3,N
1551849815.3,286047004.0,N
1551849835.1,286047001.9,N
1551849855.9,286047003.9,N
1551849875.7,286047002.2,N
1551849895.5,286047000.2,N
1551849915.4,286047000.7,N
1551849935.2,286046998.8,N
1551849955.1,286046999.3,N
1551849956.0,286046999.3,N
1551849975.8,286047001.0,N
1551849995.6,286047001.3,N
1551850015.5,286047001.4,N
1551850035.3,286047002.2,N
1551850055.1,286047001.7,N
1551850075.9,286047000.3,N
1551850095.7,286046999.4,N
1551850115.6,286046998.2,N
1551850135.4,286046998.6,N
1551850155.2,286047001.3,N
1551850175.1,286047003.1,N
1551850176.0,286047003.1,N
1551850195.8,286047003.8,N
1551850215.7,286047003.6,N
1551850235.5,286047001.4,N
1551850255.3,286047001.6,N
1551850275.2,286047000.3,N
1551850295.9,286047001.2,N
1551850315.7,286046998.5,N
1551850335.6,286046998.5,N
1551850355.4,286047000.6,N
1551850375.3,286046997.1,N
1551850395.1,286046999.6,N
1551850396.0,286046999.6,N
1551850415.8,286046996.9,N
1551850435.7,286046997.4,N
1551850455.5,286046997.2,N
1551850475.4,286046998.5,N
1551850495.2,286047000.8,N
1551850515.0,286047002.8,N
1551850515.9,286047002.8,N
1551850535.8,286047002.4,N
1551850555.6,286046998.9,N
1551850575.4,286046996.5,N
1551850595.3,286046999.9,N
1551850615.1,286047002.1,N
1551850635.9,286047004.3,N
1551850655.7,286047004.3,N
1551850675.5,286047000.2,N
1551850695.4,286047000.9,N
1551850715.2,286047000.6,N
1551850735.0,286047000.6,N
1551850735.9,286047000.6,N
1551850755.8,286046998.9,N
1551850775.6,286046998.6,N
1551850795.5,286046999.4,N
1551850815.3,286046998.1,N
1551850835.1,286046997.3,N
1551850855.9,286046996.5,N
1551850875.7,286046997.4,N
1551850895.5,286046996.8,N
1551850915.4,286046998.5,N
1551850935.2,286047001.0,N
1551850955.1,286046999.7,N
1551850956.0,286046999.7,N
1551850975.8,286047001.9,N
1551850995.6,286047000.5,N
1551851015.5,286047002.5,N
1551851035.3,286046999.8,N
1551851055.2,286047004.2,N
1551851075.9,286047002.1,N
1551851095.7,286047000.0,N
1551851115.6,286047001.2,N
1551851135.4,286047000.2,N
1551851155.2,286047000.6,N
1551851175.1,286047000.3,N
1551851176.0,286047000.3,N
1551851195.8,286047000.7,N
1551851215.7,286047000.5,N
1551851235.5,286047002.4,N
1551851255.3,286047004.2,N
1551851275.2,286047001.8,N
1551851295.0,286047005.6,N
1551851295.9,286047005.6,N
1551851315.7,286047003.5,N
1551851335.6,286047004.7,N
1551851355.4,286047005.4,N
1551851375.3,286047005.0,N
1551851395.1,286047004.4,N
1551851396.0,286047004.4,N
1551851415.8,286047004.4,N
1551851435.7,286047003.9,N
1551851455.5,286047002.5,N
1551851475.3,286047000.0,N
1551851495.2,286047000.3,N
1551851515.0,286047002.7,N
1551851515.9,286047002.7,N
1551851535.8,286047002.8,N
1551851555.6,286047000.7,N
1551851575.4,286047001.2,N
1551851595.3,286046996.8,N
1551851615.1,286046999.4,N
1551851635.8,286046996.7,N
1551851655.7,286046999.0,N
1551851675.5,286046999.9,N
1551851695.4,286046999.7,N
1551851715.2,286047001.8,N
1551851735.0,286047004.4,N
1551851735.9,286047004.4,N
1551851755.8,286047005.8,N
1551851775.6,286047003.9,N
1551851795.4,286047001.3,N
1551851815.3,286047001.3,N
1551851835.1,286047005.6,N
1551851855.9,286047004.0,N
1551851875.7,286047003.2,N
1551851895.5,286047003.6,N
1551851915.4,286047003.6,N
1551851935.2,286047003.2,N
1551851955.0,286047001.7,N
1551851955.9,286047001.7,N
1551851975.8,286047002.7,N
1551851995.6,286046999.5,N
